Time,TemperatureF,DewpointF,PressureIn,WindDirection,WindDirectionDegrees,WindSpeedMPH,WindSpeedGustMPH,Humidity,HourlyPrecipIn,Conditions,Clouds,dailyrainin,SoftwareType,DateUTC
2013-01-09 00:02:00,48.6,46.9,29.50,ENE,57,0.0,0.0,94,0.00,,---,0.00,VWS V14.01,2013-01-09 08:02:00,
2013-01-09 00:08:00,48.4,46.7,29.50,ENE,57,0.0,0.0,94,0.00,,---,0.00,VWS V14.01,2013-01-09 08:08:00,
2013-01-09 00:14:00,48.4,46.7,29.50,ENE,57,0.0,0.0,94,0.00,,---,0.00,VWS V14.01,2013-01-09 08:14:00,
2013-01-09 00:20:00,48.4,46.7,29.50,ENE,57,0.0,0.0,94,0.00,,---,0.00,VWS V14.01,2013-01-09 08:20:00,
2013-01-09 00:26:00,48.2,46.6,29.50,ENE,57,0.0,0.0,94,0.00,,---,0.00,VWS V14.01,2013-01-09 08:26:00,
2013-01-09 00:32:00,48.4,46.7,29.50,ENE,57,0.0,0.0,94,0.00,,---,0.00,VWS V14.01,2013-01-09 08:32:00,
2013-01-09 00:38:00,48.4,46.7,29.50,ENE,57,0.0,0.0,94,0.00,,---,0.00,VWS V14.01,2013-01-09 08:38:00,
2013-01-09 00:44:00,48.4,46.7,29.50,ENE,57,0.0,0.0,94,0.00,,---,0.00,VWS V14.01,2013-01-09 08:44:00,
2013-01-09 00:50:00,48.4,46.7,29.50,ENE,57,0.0,0.0,94,0.00,,---,0.00,VWS V14.01,2013-01-09 08:50:00,
2013-01-09 00:56:00,48.2,46.6,29.50,ENE,57,0.0,0.0,94,0.04,,---,0.04,VWS V14.01,2013-01-09 08:56:00,
2013-01-09 01:02:00,48.2,46.6,29.50,ENE,57,0.0,0.0,94,0.04,,---,0.04,VWS V14.01,2013-01-09 09:02:00,
2013-01-09 01:08:00,48.4,46.7,29.50,ENE,57,0.0,0.0,94,0.04,,---,0.04,VWS V14.01,2013-01-09 09:08:00,
2013-01-09 01:14:00,48.2,46.6,29.50,ENE,57,0.0,0.0,94,0.04,,---,0.04,VWS V14.01,2013-01-09 09:14:00,
2013-01-09 01:20:00,48.2,46.6,29.50,ENE,57,0.0,0.0,94,0.04,,---,0.04,VWS V14.01,2013-01-09 09:20:00,
2013-01-09 01:26:00,48.2,46.6,29.50,ENE,57,0.0,0.0,94,0.08,,---,0.08,VWS V14.01,2013-01-09 09:26:00,
2013-01-09 01:32:00,48.2,46.6,29.50,NE,56,0.0,0.0,94,0.08,,---,0.08,VWS V14.01,2013-01-09 09:32:00,
2013-01-09 01:38:00,48.2,46.6,29.50,NE,56,0.0,0.0,94,0.08,,---,0.08,VWS V14.01,2013-01-09 09:38:00,
2013-01-09 01:44:00,48.2,46.6,29.50,NE,56,0.0,0.0,94,0.08,,---,0.08,VWS V14.01,2013-01-09 09:44:00,
2013-01-09 01:50:00,48.2,46.8,29.50,NE,56,2.7,4.5,95,0.08,,---,0.08,VWS V14.01,2013-01-09 09:50:00,
2013-01-09 01:56:00,48.2,46.8,29.50,NE,56,0.0,0.0,95,0.08,,---,0.08,VWS V14.01,2013-01-09 09:56:00,
2013-01-09 02:02:00,48.2,46.8,29.50,NE,56,0.0,0.0,95,0.04,,---,0.08,VWS V14.01,2013-01-09 10:02:00,
2013-01-09 02:08:00,48.2,46.8,29.50,NE,56,0.0,0.0,95,0.04,,---,0.08,VWS V14.01,2013-01-09 10:08:00,
2013-01-09 02:14:00,48.2,46.8,29.50,NE,56,0.0,0.0,95,0.04,,---,0.08,VWS V14.01,2013-01-09 10:14:00,
2013-01-09 02:20:00,48.0,46.7,29.50,NE,56,0.0,0.0,95,0.04,,---,0.08,VWS V14.01,2013-01-09 10:20:00,
2013-01-09 02:26:00,48.0,46.7,29.50,NE,56,0.0,0.0,95,0.00,,---,0.08,VWS V14.01,2013-01-09 10:26:00,
2013-01-09 02:32:00,48.0,46.7,29.50,NE,56,0.0,0.0,95,0.04,,---,0.12,VWS V14.01,2013-01-09 10:32:00,
2013-01-09 02:38:00,48.0,46.7,29.50,NE,56,0.0,0.0,95,0.04,,---,0.12,VWS V14.01,2013-01-09 10:38:00,
2013-01-09 02:44:00,47.8,46.5,29.50,NE,56,0.0,0.0,95,0.04,,---,0.12,VWS V14.01,2013-01-09 10:44:00,
2013-01-09 02:50:00,47.8,46.5,29.50,NE,56,0.0,0.0,95,0.04,,---,0.12,VWS V14.01,2013-01-09 10:50:00,
2013-01-09 02:56:00,48.0,46.7,29.50,NE,56,0.0,0.0,95,0.04,,---,0.12,VWS V14.01,2013-01-09 10:56:00,
2013-01-09 03:02:00,48.0,46.7,29.50,NE,56,0.0,0.0,95,0.08,,---,0.16,VWS V14.01,2013-01-09 11:02:00,
2013-01-09 03:08:00,47.8,46.5,29.47,NW,316,4.0,4.0,95,0.08,,---,0.16,VWS V14.01,2013-01-09 11:08:00,
2013-01-09 03:14:00,47.1,45.8,29.47,NNW,345,0.0,7.6,95,0.08,,---,0.16,VWS V14.01,2013-01-09 11:14:00,
2013-01-09 03:20:00,46.6,45.0,29.50,NNW,334,0.0,0.0,94,0.08,,---,0.16,VWS V14.01,2013-01-09 11:20:00,
2013-01-09 03:26:00,46.0,43.6,29.50,NNW,335,0.0,0.0,91,0.08,,---,0.16,VWS V14.01,2013-01-09 11:26:00,
2013-01-09 03:32:00,46.0,42.7,29.50,NNW,335,0.0,0.0,88,0.04,,---,0.16,VWS V14.01,2013-01-09 11:32:00,
2013-01-09 03:38:00,46.0,43.0,29.47,NNW,335,0.0,0.0,89,0.04,,---,0.16,VWS V14.01,2013-01-09 11:38:00,
2013-01-09 03:44:00,45.9,42.5,29.47,NNW,335,0.0,0.0,88,0.08,,---,0.20,VWS V14.01,2013-01-09 11:44:00,
2013-01-09 03:50:00,45.7,42.0,29.47,NNE,31,0.0,3.1,87,0.08,,---,0.20,VWS V14.01,2013-01-09 11:50:00,
2013-01-09 03:56:00,45.5,41.9,29.47,East,93,0.0,0.0,87,0.08,,---,0.20,VWS V14.01,2013-01-09 11:56:00,
2013-01-09 04:02:00,45.5,42.2,29.47,East,93,0.0,0.0,88,0.08,,---,0.20,VWS V14.01,2013-01-09 12:02:00,
2013-01-09 04:08:00,45.1,40.6,29.47,East,93,0.0,0.0,84,0.04,,---,0.20,VWS V14.01,2013-01-09 12:08:00,
2013-01-09 04:14:00,44.8,39.6,29.47,ENE,74,0.0,0.0,82,0.04,,---,0.20,VWS V14.01,2013-01-09 12:14:00,
2013-01-09 04:20:00,44.6,39.1,29.47,ENE,74,0.0,0.0,81,0.04,,---,0.20,VWS V14.01,2013-01-09 12:20:00,
2013-01-09 04:26:00,44.6,39.1,29.47,ENE,74,0.0,0.0,81,0.04,,---,0.20,VWS V14.01,2013-01-09 12:26:00,
2013-01-09 04:32:00,44.6,39.5,29.47,ENE,74,0.0,0.0,82,0.04,,---,0.20,VWS V14.01,2013-01-09 12:32:00,
2013-01-09 04:38:00,44.6,39.8,29.47,ENE,74,0.0,0.0,83,0.04,,---,0.20,VWS V14.01,2013-01-09 12:38:00,
2013-01-09 04:44:00,44.6,39.8,29.47,ENE,74,0.0,0.0,83,0.00,,---,0.20,VWS V14.01,2013-01-09 12:44:00,
2013-01-09 04:50:00,44.1,37.3,29.47,ENE,74,0.0,0.0,77,0.04,,---,0.24,VWS V14.01,2013-01-09 12:50:00,
2013-01-09 04:56:00,43.5,36.5,29.47,ENE,74,0.0,0.0,76,0.04,,---,0.24,VWS V14.01,2013-01-09 12:56:00,
2013-01-09 05:02:00,43.5,37.1,29.47,ENE,74,0.0,0.0,78,0.08,,---,0.28,VWS V14.01,2013-01-09 13:02:00,
2013-01-09 05:08:00,43.3,37.3,29.47,ENE,74,0.0,0.0,79,0.08,,---,0.28,VWS V14.01,2013-01-09 13:08:00,
2013-01-09 05:14:00,43.2,36.8,29.47,ENE,74,0.0,0.0,78,0.08,,---,0.28,VWS V14.01,2013-01-09 13:14:00,
2013-01-09 05:20:00,43.0,36.6,29.47,ENE,74,0.0,0.0,78,0.08,,---,0.28,VWS V14.01,2013-01-09 13:20:00,
2013-01-09 05:26:00,42.6,36.2,29.47,East,81,0.0,0.0,78,0.08,,---,0.28,VWS V14.01,2013-01-09 13:26:00,
2013-01-09 05:32:00,42.6,36.2,29.47,East,81,0.0,0.0,78,0.12,,---,0.31,VWS V14.01,2013-01-09 13:32:00,
2013-01-09 05:38:00,42.4,36.4,29.44,East,81,0.0,0.0,79,0.12,,---,0.31,VWS V14.01,2013-01-09 13:38:00,
2013-01-09 05:44:00,42.6,36.9,29.44,East,81,0.0,0.0,80,0.12,,---,0.31,VWS V14.01,2013-01-09 13:44:00,
2013-01-09 05:50:00,42.4,36.7,29.44,East,81,0.0,0.0,80,0.12,,---,0.35,VWS V14.01,2013-01-09 13:50:00,
2013-01-09 05:56:00,42.3,36.9,29.44,East,81,0.0,0.0,81,0.12,,---,0.35,VWS V14.01,2013-01-09 13:56:00,
2013-01-09 06:02:00,42.3,36.9,29.44,East,81,0.0,0.0,81,0.12,,---,0.35,VWS V14.01,2013-01-09 14:02:00,
2013-01-09 06:08:00,42.1,36.7,29.44,East,81,0.0,0.0,81,0.12,,---,0.39,VWS V14.01,2013-01-09 14:08:00,
2013-01-09 06:14:00,41.7,36.3,29.44,East,81,0.0,0.0,81,0.12,,---,0.39,VWS V14.01,2013-01-09 14:14:00,
2013-01-09 06:20:00,41.7,36.0,29.47,East,81,0.0,0.0,80,0.12,,---,0.39,VWS V14.01,2013-01-09 14:20:00,
2013-01-09 06:26:00,41.7,36.0,29.47,East,81,0.0,0.0,80,0.20,,---,0.47,VWS V14.01,2013-01-09 14:26:00,
2013-01-09 06:32:00,41.4,35.7,29.47,East,81,0.0,0.0,80,0.16,,---,0.47,VWS V14.01,2013-01-09 14:32:00,
2013-01-09 06:38:00,41.2,35.2,29.47,East,81,0.0,0.0,79,0.16,,---,0.47,VWS V14.01,2013-01-09 14:38:00,
2013-01-09 06:44:00,41.2,35.5,29.47,East,81,0.0,0.0,80,0.20,,---,0.51,VWS V14.01,2013-01-09 14:44:00,
2013-01-09 06:50:00,41.0,35.0,29.47,East,81,0.0,0.0,79,0.16,,---,0.51,VWS V14.01,2013-01-09 14:50:00,
2013-01-09 06:56:00,40.6,34.7,29.47,East,81,0.0,0.0,79,0.16,,---,0.51,VWS V14.01,2013-01-09 14:56:00,
2013-01-09 07:02:00,40.3,32.7,29.47,East,81,0.0,2.2,74,0.20,,---,0.55,VWS V14.01,2013-01-09 15:02:00,
2013-01-09 07:08:00,39.9,32.3,29.47,East,81,0.0,0.0,74,0.20,,---,0.55,VWS V14.01,2013-01-09 15:08:00,
2013-01-09 07:14:00,39.7,32.1,29.47,East,81,0.0,0.0,74,0.16,,---,0.55,VWS V14.01,2013-01-09 15:14:00,
2013-01-09 07:20:00,39.6,32.3,29.47,North,8,0.0,2.7,75,0.20,,---,0.59,VWS V14.01,2013-01-09 15:20:00,
2013-01-09 07:26:00,39.2,31.6,29.47,North,8,0.0,0.0,74,0.12,,---,0.59,VWS V14.01,2013-01-09 15:26:00,
2013-01-09 07:32:00,38.7,30.4,29.47,North,357,0.0,3.6,72,0.16,,---,0.63,VWS V14.01,2013-01-09 15:32:00,
2013-01-09 07:38:00,38.5,30.2,29.47,North,357,0.0,0.0,72,0.16,,---,0.63,VWS V14.01,2013-01-09 15:38:00,
2013-01-09 07:44:00,38.3,30.4,29.47,North,357,0.0,0.0,73,0.12,,---,0.63,VWS V14.01,2013-01-09 15:44:00,
2013-01-09 07:50:00,37.9,29.7,29.50,North,357,0.0,0.0,72,0.12,,---,0.63,VWS V14.01,2013-01-09 15:50:00,
2013-01-09 07:56:00,37.6,29.4,29.50,North,357,0.0,0.0,72,0.16,,---,0.67,VWS V14.01,2013-01-09 15:56:00,
2013-01-09 08:02:00,37.2,29.0,29.50,North,357,0.0,0.0,72,0.12,,---,0.67,VWS V14.01,2013-01-09 16:02:00,
2013-01-09 08:08:00,36.9,28.7,29.50,North,357,0.0,0.0,72,0.12,,---,0.67,VWS V14.01,2013-01-09 16:08:00,
2013-01-09 08:14:00,36.1,27.0,29.50,North,357,0.0,0.0,69,0.12,,---,0.67,VWS V14.01,2013-01-09 16:14:00,
2013-01-09 08:20:00,35.8,26.6,29.50,North,357,0.0,0.0,69,0.12,,---,0.71,VWS V14.01,2013-01-09 16:20:00,
2013-01-09 08:26:00,35.4,26.6,29.50,North,357,0.0,0.0,70,0.12,,---,0.71,VWS V14.01,2013-01-09 16:26:00,
2013-01-09 08:32:00,35.1,26.3,29.50,North,357,0.0,0.0,70,0.12,,---,0.71,VWS V14.01,2013-01-09 16:32:00,
2013-01-09 08:38:00,34.9,26.5,29.50,North,357,0.0,0.0,71,0.08,,---,0.71,VWS V14.01,2013-01-09 16:38:00,
2013-01-09 08:44:00,34.9,26.8,29.50,North,357,0.0,0.0,72,0.08,,---,0.71,VWS V14.01,2013-01-09 16:44:00,
2013-01-09 08:50:00,34.5,26.4,29.50,North,357,0.0,0.0,72,0.08,,---,0.71,VWS V14.01,2013-01-09 16:50:00,
2013-01-09 08:56:00,34.5,26.4,29.50,North,357,0.0,0.0,72,0.08,,---,0.71,VWS V14.01,2013-01-09 16:56:00,
2013-01-09 09:02:00,34.5,26.8,29.50,North,357,0.0,0.0,73,0.04,,---,0.71,VWS V14.01,2013-01-09 17:02:00,
2013-01-09 09:08:00,34.5,26.8,29.53,North,357,0.0,0.0,73,0.04,,---,0.71,VWS V14.01,2013-01-09 17:08:00,
2013-01-09 09:14:00,34.3,26.6,29.53,North,357,0.0,0.0,73,0.04,,---,0.71,VWS V14.01,2013-01-09 17:14:00,
2013-01-09 09:20:00,34.3,26.9,29.53,North,357,0.0,0.0,74,0.00,,---,0.71,VWS V14.01,2013-01-09 17:20:00,
2013-01-09 09:26:00,34.0,26.6,29.53,North,357,0.0,0.0,74,0.00,,---,0.71,VWS V14.01,2013-01-09 17:26:00,
2013-01-09 09:32:00,34.0,26.6,29.53,North,357,0.0,0.0,74,0.00,,---,0.71,VWS V14.01,2013-01-09 17:32:00,
2013-01-09 09:38:00,34.2,27.1,29.53,North,357,0.0,0.0,75,0.00,,---,0.71,VWS V14.01,2013-01-09 17:38:00,
2013-01-09 09:44:00,34.2,27.1,29.53,North,357,0.0,0.0,75,0.00,,---,0.71,VWS V14.01,2013-01-09 17:44:00,
2013-01-09 09:50:00,34.0,27.2,29.53,North,357,0.0,0.0,76,0.04,,---,0.75,VWS V14.01,2013-01-09 17:50:00,
2013-01-09 09:56:00,34.0,27.2,29.53,North,357,0.0,0.0,76,0.04,,---,0.75,VWS V14.01,2013-01-09 17:56:00,
2013-01-09 10:02:00,34.0,27.2,29.53,North,357,0.0,0.0,76,0.04,,---,0.75,VWS V14.01,2013-01-09 18:02:00,
2013-01-09 10:08:00,34.0,27.5,29.53,North,357,0.0,0.0,77,0.04,,---,0.75,VWS V14.01,2013-01-09 18:08:00,
2013-01-09 10:14:00,34.0,27.5,29.53,North,357,0.0,0.0,77,0.08,,---,0.79,VWS V14.01,2013-01-09 18:14:00,
2013-01-09 10:20:00,34.0,27.9,29.53,North,357,0.0,0.0,78,0.08,,---,0.79,VWS V14.01,2013-01-09 18:20:00,
2013-01-09 10:26:00,34.0,27.9,29.53,North,357,0.0,0.0,78,0.08,,---,0.79,VWS V14.01,2013-01-09 18:26:00,
2013-01-09 10:32:00,34.2,28.0,29.53,North,357,0.0,0.0,78,0.08,,---,0.79,VWS V14.01,2013-01-09 18:32:00,
2013-01-09 10:38:00,34.2,28.0,29.53,North,357,0.0,0.0,78,0.08,,---,0.79,VWS V14.01,2013-01-09 18:38:00,
2013-01-09 10:42:00,34.2,28.3,29.53,North,357,0.0,0.0,79,0.08,,---,0.79,VWS V14.01,2013-01-09 18:42:00,
2013-01-09 10:46:00,34.2,28.3,29.53,North,357,0.0,0.0,79,0.08,,---,0.79,VWS V14.01,2013-01-09 18:46:00,
2013-01-09 10:48:00,34.2,28.3,29.53,North,357,0.0,0.0,79,0.12,,---,0.83,VWS V14.01,2013-01-09 18:48:00,
2013-01-09 10:50:00,34.2,28.3,29.53,North,357,0.0,0.0,79,0.08,,---,0.83,VWS V14.01,2013-01-09 18:50:00,
2013-01-09 10:54:00,34.2,28.3,29.53,North,357,0.0,0.0,79,0.08,,---,0.83,VWS V14.01,2013-01-09 18:54:00,
2013-01-09 10:58:00,34.2,28.3,29.53,North,357,0.0,0.0,79,0.08,,---,0.83,VWS V14.01,2013-01-09 18:58:00,
2013-01-09 11:04:00,34.2,28.6,29.53,North,357,0.0,0.0,80,0.08,,---,0.83,VWS V14.01,2013-01-09 19:04:00,
2013-01-09 11:10:00,34.2,28.6,29.53,North,357,0.0,0.0,80,0.08,,---,0.83,VWS V14.01,2013-01-09 19:10:00,
2013-01-09 11:16:00,34.2,28.6,29.53,North,357,0.0,0.0,80,0.04,,---,0.83,VWS V14.01,2013-01-09 19:16:00,
2013-01-09 11:22:00,34.2,29.0,29.53,North,357,0.0,0.0,81,0.08,,---,0.87,VWS V14.01,2013-01-09 19:22:00,
2013-01-09 11:28:00,34.3,29.1,29.53,North,357,0.0,0.0,81,0.08,,---,0.87,VWS V14.01,2013-01-09 19:28:00,
2013-01-09 11:34:00,34.3,29.1,29.53,North,357,0.0,0.0,81,0.08,,---,0.87,VWS V14.01,2013-01-09 19:34:00,
2013-01-09 11:40:00,34.5,29.6,29.53,North,357,0.0,0.0,82,0.08,,---,0.87,VWS V14.01,2013-01-09 19:40:00,
2013-01-09 11:46:00,34.5,29.6,29.53,North,357,0.0,0.0,82,0.08,,---,0.87,VWS V14.01,2013-01-09 19:46:00,
2013-01-09 11:52:00,34.5,29.9,29.53,North,357,0.0,0.0,83,0.04,,---,0.87,VWS V14.01,2013-01-09 19:52:00,
2013-01-09 11:58:00,34.9,30.2,29.53,North,357,0.0,0.0,83,0.04,,---,0.87,VWS V14.01,2013-01-09 19:58:00,
2013-01-09 12:04:00,34.9,30.5,29.53,North,357,0.0,0.0,84,0.04,,---,0.87,VWS V14.01,2013-01-09 20:04:00,
2013-01-09 12:10:00,34.9,30.5,29.53,North,357,0.0,0.0,84,0.04,,---,0.87,VWS V14.01,2013-01-09 20:10:00,
2013-01-09 12:16:00,34.9,30.5,29.53,North,357,0.0,0.0,84,0.04,,---,0.87,VWS V14.01,2013-01-09 20:16:00,
2013-01-09 12:22:00,35.1,30.7,29.53,North,357,0.0,0.0,84,0.00,,---,0.87,VWS V14.01,2013-01-09 20:22:00,
2013-01-09 12:28:00,35.2,31.2,29.53,North,357,0.0,0.0,85,0.00,,---,0.87,VWS V14.01,2013-01-09 20:28:00,
2013-01-09 12:34:00,35.2,31.2,29.53,North,357,0.0,0.0,85,0.00,,---,0.87,VWS V14.01,2013-01-09 20:34:00,
2013-01-09 12:40:00,35.4,31.7,29.53,North,357,0.0,0.0,86,0.04,,---,0.91,VWS V14.01,2013-01-09 20:40:00,
2013-01-09 12:46:00,35.6,31.8,29.53,North,357,0.0,0.0,86,0.04,,---,0.91,VWS V14.01,2013-01-09 20:46:00,
2013-01-09 12:52:00,35.8,32.0,29.53,ENE,70,0.0,4.0,86,0.04,,---,0.91,VWS V14.01,2013-01-09 20:52:00,
2013-01-09 12:58:00,36.1,32.4,29.53,ENE,70,0.0,0.0,86,0.04,,---,0.91,VWS V14.01,2013-01-09 20:58:00,
2013-01-09 13:04:00,36.3,32.8,29.53,ENE,70,0.0,0.0,87,0.04,,---,0.91,VWS V14.01,2013-01-09 21:04:00,
2013-01-09 13:10:00,36.5,33.0,29.53,WSW,256,0.0,0.0,87,0.04,,---,0.91,VWS V14.01,2013-01-09 21:10:00,
2013-01-09 13:16:00,36.5,33.3,29.53,WSW,256,0.0,0.0,88,0.04,,---,0.91,VWS V14.01,2013-01-09 21:16:00,
2013-01-09 13:22:00,36.9,33.7,29.53,NNW,342,0.0,0.0,88,0.08,,---,0.94,VWS V14.01,2013-01-09 21:22:00,
2013-01-09 13:28:00,36.7,33.5,29.53,NNW,342,0.0,0.0,88,0.08,,---,0.94,VWS V14.01,2013-01-09 21:28:00,
2013-01-09 13:34:00,36.9,33.7,29.53,NNW,342,0.0,0.0,88,0.08,,---,0.94,VWS V14.01,2013-01-09 21:34:00,
2013-01-09 13:40:00,37.0,34.1,29.56,NNW,342,0.0,0.0,89,0.04,,---,0.94,VWS V14.01,2013-01-09 21:40:00,
2013-01-09 13:46:00,37.4,34.5,29.56,NNW,343,0.0,0.0,89,0.04,,---,0.94,VWS V14.01,2013-01-09 21:46:00,
2013-01-09 13:52:00,37.6,34.6,29.56,North,3,0.0,0.0,89,0.04,,---,0.94,VWS V14.01,2013-01-09 21:52:00,
2013-01-09 13:58:00,37.9,35.3,29.56,North,3,0.0,0.0,90,0.04,,---,0.94,VWS V14.01,2013-01-09 21:58:00,
2013-01-09 14:04:00,38.1,35.5,29.56,North,3,0.0,0.0,90,0.04,,---,0.94,VWS V14.01,2013-01-09 22:04:00,
2013-01-09 14:10:00,38.3,35.6,29.56,NNE,17,0.0,0.0,90,0.04,,---,0.94,VWS V14.01,2013-01-09 22:10:00,
2013-01-09 14:16:00,38.5,35.8,29.56,SSW,202,0.0,0.0,90,0.04,,---,0.94,VWS V14.01,2013-01-09 22:16:00,
2013-01-09 14:22:00,38.7,36.3,29.56,WSW,257,0.0,3.1,91,0.00,,---,0.94,VWS V14.01,2013-01-09 22:22:00,
2013-01-09 14:28:00,38.8,36.4,29.56,ENE,73,0.0,0.0,91,0.00,,---,0.94,VWS V14.01,2013-01-09 22:28:00,
2013-01-09 14:34:00,38.8,36.4,29.56,ENE,73,0.0,0.0,91,0.00,,---,0.94,VWS V14.01,2013-01-09 22:34:00,
2013-01-09 14:40:00,38.8,36.4,29.56,ENE,73,0.0,0.0,91,0.00,,---,0.94,VWS V14.01,2013-01-09 22:40:00,
2013-01-09 14:46:00,39.0,36.6,29.56,ENE,73,0.0,0.0,91,0.00,,---,0.94,VWS V14.01,2013-01-09 22:46:00,
2013-01-09 14:52:00,39.2,36.8,29.56,ENE,73,0.0,0.0,91,0.00,,---,0.94,VWS V14.01,2013-01-09 22:52:00,
2013-01-09 14:58:00,39.2,36.8,29.56,ENE,73,0.0,0.0,91,0.00,,---,0.94,VWS V14.01,2013-01-09 22:58:00,
2013-01-09 15:04:00,39.2,37.1,29.56,ENE,73,0.0,0.0,92,0.00,,---,0.94,VWS V14.01,2013-01-09 23:04:00,
2013-01-09 15:10:00,39.4,37.2,29.56,ENE,73,0.0,0.0,92,0.00,,---,0.94,VWS V14.01,2013-01-09 23:10:00,
2013-01-09 15:16:00,39.4,37.2,29.56,NNE,19,0.0,0.0,92,0.00,,---,0.94,VWS V14.01,2013-01-09 23:16:00,
2013-01-09 15:22:00,39.6,37.4,29.56,NNE,19,0.0,0.0,92,0.00,,---,0.94,VWS V14.01,2013-01-09 23:22:00,
2013-01-09 15:28:00,39.6,37.4,29.56,NNE,19,0.0,0.0,92,0.00,,---,0.94,VWS V14.01,2013-01-09 23:28:00,
2013-01-09 15:34:00,39.6,37.7,29.56,NNE,19,0.0,0.0,93,0.00,,---,0.94,VWS V14.01,2013-01-09 23:34:00,
2013-01-09 15:40:00,39.7,37.9,29.59,NNE,19,0.0,0.0,93,0.00,,---,0.94,VWS V14.01,2013-01-09 23:40:00,
2013-01-09 15:46:00,39.7,37.9,29.59,NNE,19,0.0,0.0,93,0.00,,---,0.94,VWS V14.01,2013-01-09 23:46:00,
2013-01-09 15:52:00,39.7,37.9,29.59,ESE,105,0.0,0.0,93,0.00,,---,0.94,VWS V14.01,2013-01-09 23:52:00,
2013-01-09 15:58:00,39.7,37.9,29.59,ESE,106,0.0,0.0,93,0.00,,---,0.94,VWS V14.01,2013-01-09 23:58:00,
2013-01-09 16:04:00,39.7,37.9,29.59,ESE,106,0.0,0.0,93,0.00,,---,0.94,VWS V14.01,2013-01-10 00:04:00,
2013-01-09 16:10:00,39.6,37.7,29.59,NNE,20,0.0,0.0,93,0.00,,---,0.94,VWS V14.01,2013-01-10 00:10:00,
2013-01-09 16:16:00,39.7,37.9,29.59,NNE,20,0.0,0.0,93,0.00,,---,0.94,VWS V14.01,2013-01-10 00:16:00,
2013-01-09 16:22:00,39.6,37.7,29.62,NNE,20,0.0,0.0,93,0.00,,---,0.94,VWS V14.01,2013-01-10 00:22:00,
2013-01-09 16:28:00,39.6,37.7,29.62,NNE,20,0.0,0.0,93,0.00,,---,0.94,VWS V14.01,2013-01-10 00:28:00,
2013-01-09 16:34:00,39.6,37.7,29.62,NNE,21,0.0,0.0,93,0.00,,---,0.94,VWS V14.01,2013-01-10 00:34:00,
2013-01-09 16:40:00,39.4,37.5,29.62,NNE,20,0.0,3.6,93,0.00,,---,0.94,VWS V14.01,2013-01-10 00:40:00,
2013-01-09 16:46:00,39.4,37.5,29.62,NNE,20,0.0,0.0,93,0.00,,---,0.94,VWS V14.01,2013-01-10 00:46:00,
2013-01-09 16:52:00,39.4,37.5,29.62,NNE,20,0.0,0.0,93,0.00,,---,0.94,VWS V14.01,2013-01-10 00:52:00,
2013-01-09 16:58:00,39.4,37.5,29.62,NNE,21,0.0,0.0,93,0.00,,---,0.94,VWS V14.01,2013-01-10 00:58:00,
2013-01-09 17:04:00,39.4,37.5,29.62,NNE,21,0.0,0.0,93,0.00,,---,0.94,VWS V14.01,2013-01-10 01:04:00,
2013-01-09 17:10:00,39.2,37.1,29.62,NNE,21,0.0,0.0,92,0.00,,---,0.94,VWS V14.01,2013-01-10 01:10:00,
2013-01-09 17:16:00,39.2,37.1,29.62,NNE,21,0.0,0.0,92,0.00,,---,0.94,VWS V14.01,2013-01-10 01:16:00,
2013-01-09 17:22:00,39.2,36.8,29.62,NNE,21,0.0,0.0,91,0.00,,---,0.94,VWS V14.01,2013-01-10 01:22:00,
2013-01-09 17:28:00,39.2,36.8,29.62,NNE,21,0.0,0.0,91,0.00,,---,0.94,VWS V14.01,2013-01-10 01:28:00,
2013-01-09 17:34:00,39.4,37.0,29.62,NNE,21,0.0,0.0,91,0.00,,---,0.94,VWS V14.01,2013-01-10 01:34:00,
2013-01-09 17:40:00,39.2,36.5,29.62,NNE,21,0.0,0.0,90,0.00,,---,0.94,VWS V14.01,2013-01-10 01:40:00,
2013-01-09 17:46:00,39.2,36.5,29.62,NNE,21,0.0,0.0,90,0.00,,---,0.94,VWS V14.01,2013-01-10 01:46:00,
2013-01-09 17:52:00,39.2,36.5,29.62,NNE,21,0.0,0.0,90,0.00,,---,0.94,VWS V14.01,2013-01-10 01:52:00,
2013-01-09 17:58:00,39.2,36.5,29.62,NNE,21,0.0,0.0,90,0.00,,---,0.94,VWS V14.01,2013-01-10 01:58:00,
2013-01-09 18:04:00,39.2,36.5,29.65,NNE,21,0.0,0.0,90,0.00,,---,0.94,VWS V14.01,2013-01-10 02:04:00,
2013-01-09 18:10:00,38.8,35.9,29.65,NNE,21,0.0,0.0,89,0.00,,---,0.94,VWS V14.01,2013-01-10 02:10:00,
2013-01-09 18:16:00,38.8,35.9,29.65,NNE,21,0.0,0.0,89,0.00,,---,0.94,VWS V14.01,2013-01-10 02:16:00,
2013-01-09 18:22:00,38.8,35.9,29.65,NNE,21,0.0,0.0,89,0.00,,---,0.94,VWS V14.01,2013-01-10 02:22:00,
2013-01-09 18:28:00,38.8,35.9,29.65,NNE,21,0.0,0.0,89,0.00,,---,0.94,VWS V14.01,2013-01-10 02:28:00,
2013-01-09 18:34:00,38.7,35.7,29.65,NNE,21,0.0,0.0,89,0.00,,---,0.94,VWS V14.01,2013-01-10 02:34:00,
2013-01-09 18:40:00,38.7,35.4,29.65,NNE,21,0.0,0.0,88,0.00,,---,0.94,VWS V14.01,2013-01-10 02:40:00,
2013-01-09 18:46:00,38.5,35.2,29.65,NNE,21,0.0,0.0,88,0.00,,---,0.94,VWS V14.01,2013-01-10 02:46:00,
2013-01-09 18:52:00,38.5,35.2,29.65,NNE,21,0.0,0.0,88,0.00,,---,0.94,VWS V14.01,2013-01-10 02:52:00,
2013-01-09 18:58:00,38.5,35.2,29.65,NNE,21,0.0,0.0,88,0.00,,---,0.94,VWS V14.01,2013-01-10 02:58:00,
2013-01-09 19:04:00,38.7,35.4,29.65,NNE,21,0.0,0.0,88,0.00,,---,0.94,VWS V14.01,2013-01-10 03:04:00,
2013-01-09 19:10:00,38.7,35.4,29.65,NNE,21,0.0,0.0,88,0.00,,---,0.94,VWS V14.01,2013-01-10 03:10:00,
2013-01-09 19:16:00,38.7,35.4,29.65,NNE,21,0.0,0.0,88,0.00,,---,0.94,VWS V14.01,2013-01-10 03:16:00,
2013-01-09 19:22:00,38.7,35.4,29.65,NNE,21,0.0,0.0,88,0.00,,---,0.94,VWS V14.01,2013-01-10 03:22:00,
2013-01-09 19:28:00,38.5,35.2,29.65,NNE,21,0.0,0.0,88,0.00,,---,0.94,VWS V14.01,2013-01-10 03:28:00,
2013-01-09 19:34:00,38.5,35.2,29.65,NNE,20,0.0,0.0,88,0.00,,---,0.94,VWS V14.01,2013-01-10 03:34:00,
2013-01-09 19:40:00,38.5,35.2,29.65,NNE,20,0.0,0.0,88,0.00,,---,0.94,VWS V14.01,2013-01-10 03:40:00,
2013-01-09 19:46:00,38.5,35.2,29.65,NNE,20,0.0,0.0,88,0.00,,---,0.94,VWS V14.01,2013-01-10 03:46:00,
2013-01-09 19:52:00,38.5,35.2,29.65,NNE,20,0.0,0.0,88,0.00,,---,0.94,VWS V14.01,2013-01-10 03:52:00,
2013-01-09 19:58:00,38.3,35.1,29.65,NNE,20,0.0,0.0,88,0.00,,---,0.94,VWS V14.01,2013-01-10 03:58:00,
2013-01-09 20:04:00,38.3,35.1,29.65,NNE,20,0.0,0.0,88,0.00,,---,0.94,VWS V14.01,2013-01-10 04:04:00,
2013-01-09 20:10:00,38.1,34.9,29.65,NNE,20,0.0,0.0,88,0.00,,---,0.94,VWS V14.01,2013-01-10 04:10:00,
2013-01-09 20:16:00,38.1,34.9,29.65,NNE,20,0.0,0.0,88,0.00,,---,0.94,VWS V14.01,2013-01-10 04:16:00,
2013-01-09 20:22:00,38.1,34.6,29.68,NNE,20,0.0,0.0,87,0.00,,---,0.94,VWS V14.01,2013-01-10 04:22:00,
2013-01-09 20:28:00,38.1,34.6,29.68,NNE,20,0.0,0.0,87,0.00,,---,0.94,VWS V14.01,2013-01-10 04:28:00,
2013-01-09 20:34:00,38.1,34.6,29.68,NNE,20,0.0,0.0,87,0.00,,---,0.94,VWS V14.01,2013-01-10 04:34:00,
2013-01-09 20:40:00,38.1,34.6,29.68,NNE,20,0.0,0.0,87,0.00,,---,0.94,VWS V14.01,2013-01-10 04:40:00,
2013-01-09 20:46:00,37.9,34.1,29.68,NNE,20,0.0,0.0,86,0.00,,---,0.94,VWS V14.01,2013-01-10 04:46:00,
2013-01-09 20:52:00,37.9,34.1,29.68,NNE,20,0.0,0.0,86,0.00,,---,0.94,VWS V14.01,2013-01-10 04:52:00,
2013-01-09 20:58:00,37.9,34.1,29.68,NNE,20,0.0,0.0,86,0.00,,---,0.94,VWS V14.01,2013-01-10 04:58:00,
2013-01-09 21:00:00,37.8,34.0,29.68,NNE,20,0.0,0.0,86,0.00,,---,0.94,VWS V14.01,2013-01-10 05:00:00,
2013-01-09 21:04:00,37.8,34.0,29.68,NNE,20,0.0,0.0,86,0.00,,---,0.94,VWS V14.01,2013-01-10 05:04:00,
2013-01-09 21:06:00,37.8,34.0,29.68,NNE,20,0.0,0.0,86,0.00,,---,0.94,VWS V14.01,2013-01-10 05:06:00,
2013-01-09 21:10:00,37.8,34.0,29.68,NNE,20,0.0,0.0,86,0.00,,---,0.94,VWS V14.01,2013-01-10 05:10:00,
2013-01-09 21:16:00,37.8,34.0,29.68,NNE,20,0.0,0.0,86,0.00,,---,0.94,VWS V14.01,2013-01-10 05:16:00,
2013-01-09 21:22:00,37.8,34.0,29.68,NNE,20,0.0,0.0,86,0.00,,---,0.94,VWS V14.01,2013-01-10 05:22:00,
2013-01-09 21:28:00,37.8,34.0,29.68,NNE,20,0.0,0.0,86,0.00,,---,0.94,VWS V14.01,2013-01-10 05:28:00,
2013-01-09 21:34:00,37.8,34.0,29.68,NNE,20,0.0,0.0,86,0.00,,---,0.94,VWS V14.01,2013-01-10 05:34:00,
2013-01-09 21:40:00,37.8,34.0,29.68,NNE,20,0.0,0.0,86,0.00,,---,0.94,VWS V14.01,2013-01-10 05:40:00,
2013-01-09 21:46:00,37.6,33.5,29.68,NNE,20,0.0,0.0,85,0.00,,---,0.94,VWS V14.01,2013-01-10 05:46:00,
2013-01-09 21:52:00,37.6,33.5,29.68,NNE,20,0.0,0.0,85,0.00,,---,0.94,VWS V14.01,2013-01-10 05:52:00,
2013-01-09 21:58:00,37.2,33.1,29.68,NNE,20,0.0,0.0,85,0.00,,---,0.94,VWS V14.01,2013-01-10 05:58:00,
2013-01-09 22:04:00,36.9,32.8,29.68,NNE,20,0.0,0.0,85,0.00,,---,0.94,VWS V14.01,2013-01-10 06:04:00,
2013-01-09 22:10:00,36.7,32.3,29.68,NNE,20,0.0,0.0,84,0.00,,---,0.94,VWS V14.01,2013-01-10 06:10:00,
2013-01-09 22:16:00,36.9,32.8,29.68,NNE,20,0.0,0.0,85,0.00,,---,0.94,VWS V14.01,2013-01-10 06:16:00,
2013-01-09 22:22:00,36.9,32.8,29.68,NNE,20,0.0,0.0,85,0.00,,---,0.94,VWS V14.01,2013-01-10 06:22:00,
2013-01-09 22:28:00,36.9,32.8,29.68,NNE,20,0.0,0.0,85,0.00,,---,0.94,VWS V14.01,2013-01-10 06:28:00,
2013-01-09 22:34:00,36.9,32.8,29.68,NNE,20,0.0,0.0,85,0.00,,---,0.94,VWS V14.01,2013-01-10 06:34:00,
2013-01-09 22:40:00,37.0,33.0,29.71,NNE,20,0.0,0.0,85,0.00,,---,0.94,VWS V14.01,2013-01-10 06:40:00,
2013-01-09 22:47:00,37.0,33.0,29.71,NNE,20,0.0,0.0,85,0.00,,---,0.94,VWS V14.01,2013-01-10 06:47:00,
2013-01-09 22:52:00,37.0,33.0,29.71,NNE,20,0.0,0.0,85,0.00,,---,0.94,VWS V14.01,2013-01-10 06:52:00,
2013-01-09 22:58:00,37.2,33.4,29.71,NNE,20,0.0,0.0,86,0.00,,---,0.94,VWS V14.01,2013-01-10 06:58:00,
2013-01-09 23:04:00,37.2,33.4,29.71,NNE,20,0.0,0.0,86,0.00,,---,0.94,VWS V14.01,2013-01-10 07:04:00,
2013-01-09 23:10:00,37.2,33.4,29.71,NNE,20,0.0,0.0,86,0.00,,---,0.94,VWS V14.01,2013-01-10 07:10:00,
2013-01-09 23:16:00,37.2,33.1,29.71,NNE,20,0.0,0.0,85,0.00,,---,0.94,VWS V14.01,2013-01-10 07:16:00,
2013-01-09 23:22:00,37.2,33.1,29.71,NNE,20,0.0,0.0,85,0.00,,---,0.94,VWS V14.01,2013-01-10 07:22:00,
2013-01-09 23:28:00,37.2,33.1,29.71,NNE,20,0.0,0.0,85,0.00,,---,0.94,VWS V14.01,2013-01-10 07:28:00,
2013-01-09 23:34:00,37.2,33.1,29.71,NNE,20,0.0,0.0,85,0.00,,---,0.94,VWS V14.01,2013-01-10 07:34:00,
2013-01-09 23:40:00,37.2,33.4,29.71,NNE,20,0.0,0.0,86,0.00,,---,0.94,VWS V14.01,2013-01-10 07:40:00,
2013-01-09 23:46:00,37.2,33.4,29.71,NNE,20,0.0,0.0,86,0.00,,---,0.94,VWS V14.01,2013-01-10 07:46:00,
2013-01-09 23:52:00,37.2,33.4,29.71,NNE,20,0.0,0.0,86,0.00,,---,0.94,VWS V14.01,2013-01-10 07:52:00,
2013-01-09 23:58:00,37.2,33.1,29.71,NNE,20,0.0,0.0,85,0.00,,---,0.94,VWS V14.01,2013-01-10 07:58:00,